Location: ??????
(41.4460°N, 22.6094°E)
Time: 01:20:04
(UTC+00:00)

Daily predictions for brighter satellites

Satellite Brightness Start Highest point End
(mag) Time Altitude Azimuth Time Altitude Azimuth Time Altitude Azimuth
ATLAS 3B R/B 4.2 01:49:12 32° ESE 01:49:12 32° ESE 01:53:03 10° SE
Milstar 3 Cent rocket 4.4 02:13:15 23° SSE 02:13:15 23° SSE 02:18:05 10° SE
Atlas Centaur 2 4.2 02:18:09 27° SSE 02:18:09 27° SSE 02:22:01 10° SE
ATLAS 5 CENTAUR R/B 4.0 02:35:42 18° ENE 02:35:42 18° ENE 02:37:12 10° ENE
BREEZE-M DEB (TANK) 4.3 02:41:47 32° E 02:41:47 32° E 02:46:05 10° ENE
ATLAS 2AS CENTAUR R/B 4.0 02:52:20 31° N 02:52:20 31° N 02:57:19 10° NNE
Cosmos 2344 4.4 02:45:54 40° NNW 02:50:37 85° NE 03:04:24 10° SE
FENGYUN 3A 3.9 02:49:08 10° NNE 02:54:31 66° ESE 02:59:51 10° S
ADEOS 4.2 02:49:38 10° NNE 02:54:46 54° E 02:59:52 10° S
COSMOS 2455 2.7 03:06:03 85° NW 03:06:03 85° NW 03:12:07 10° NNE
Cosmos 2154 Rocket 4.5 03:02:18 10° S 03:08:23 59° E 03:14:33 10° NNE
Cosmos 372 Rocket 4.0 03:09:21 76° E 03:09:21 76° E 03:14:23 10° NNE
METEOR-M 4.3 03:04:18 10° NNE 03:09:38 70° ESE 03:14:57 10° S
CZ-2C R/B 3.2 03:16:35 19° SE 03:16:35 19° SE 03:18:08 10° ESE
Cosmos 2074 Rocket 3.8 03:13:41 10° SSW 03:19:52 73° W 03:26:05 10° N
Cosmos 1833 Rocket 4.2 03:16:09 15° N 03:20:13 33° ENE 03:25:14 10° ESE
Sich 1 4.3 03:17:42 10° SSE 03:21:52 41° E 03:26:02 10° NNE
Cosmos 2082 Rocket 4.3 03:20:43 10° N 03:25:06 22° NE 03:29:29 10° ESE
ERS-2 3.3 03:22:18 10° SSE 03:24:34 36° SSE 03:24:34 36° SSE
SL-4 R/B 3.0 03:31:08 35° NNE 03:31:08 35° NNE 03:34:28 10° E
Lacrosse 5 3.9 03:33:29 15° N 03:33:29 15° N 03:35:47 10° NNE
Cosmos 2228 Rocket 2.9 03:33:35 77° NW 03:33:48 82° W 03:38:11 10° S
CRYOSAT 2 4.3 03:29:54 10° S 03:34:26 60° WSW 03:34:26 60° WSW
BREEZE-M DEB (TANK) 4.3 03:32:33 29° SW 03:34:54 65° SSE 03:43:02 10° ENE
Meteor 2-6 Rocket 4.0 03:33:43 46° NW 03:35:11 65° W 03:40:40 10° S
ATLAS 3B R/B 3.4 03:36:31 35° WSW 03:36:31 35° WSW 03:42:55 10° S
BREEZE M DEB (TANK) 3.2 03:28:17 17° SW 03:36:31 86° SSE 03:39:53 10° ENE
Cosmos 1437 Rocket 2.7 03:37:22 74° NE 03:37:35 79° E 03:41:22 10° SSE
Cosmos 2184 Rocket 4.2 03:39:22 10° SSW 03:45:28 48° WNW 03:51:38 10° N
CZ-4C R/B 3.9 03:47:08 18° NNW 03:47:08 18° NNW 03:50:34 10° NNE
USA 307 3.5 03:46:24 37° NNW 03:47:38 50° NE 03:51:49 10° ESE
Cosmos 2278 Rocket 2.4 03:45:04 10° SSW 03:50:42 75° ESE 03:56:23 10° NNE
Meteor PRIRODA 3.6 03:49:35 10° NNE 03:53:20 82° ESE 03:57:03 10° S
CZ-4B R/B 2.9 03:49:42 10° NNE 03:54:07 87° WNW 03:58:20 10° SSW
USA 308 3.4 03:52:49 35° NNW 03:54:19 55° NE 03:58:32 10° ESE
COSMO-SKYMED 1 2.4 03:53:02 10° S 03:57:21 70° WSW 04:00:08 22° NNW
SAR-Lupe-4 3.4 03:55:49 10° S 03:59:22 67° WSW 04:00:21 44° NW
Envisat 4.2 03:55:44 10° NNE 04:00:34 44° E 04:05:24 10° S
Cosmos 1844 Rocket 4.2 04:02:42 18° NNW 04:02:42 18° NNW 04:05:17 10° N
Cosmos 1805 Rocket 3.7 03:57:16 10° SSW 04:01:36 52° W 04:05:59 10° N
Okean O Rocket 4.5 03:58:56 10° NE 04:02:13 20° E 04:05:29 10° SE
SL-24 R/B 4.4 03:57:38 10° S 04:03:07 73° WSW 04:07:54 10° NNW
Atlas Centaur 2 4.3 04:00:45 13° WSW 04:04:07 18° SSW 04:08:22 10° SSE
Cosmos 494 Rocket 4.3 03:59:56 10° NNW 04:05:03 64° ENE 04:10:07 10° SSE
deb Chang Zheng 4 3.9 04:02:04 10° N 04:06:09 40° WNW 04:10:13 10° SW
COSMOS 2406 3.2 04:02:25 14° NNW 04:07:24 87° WSW 04:13:11 10° SSE
Cosmos 1666 Rocket 3.5 04:05:30 10° S 04:09:48 89° E 04:14:11 10° N
Cosmos 1812 4.3 04:11:56 19° SW 04:11:56 19° SW 04:13:34 10° SW
YAOGAN 6 3.7 04:08:10 10° NNE 04:11:31 45° E 04:14:52 10° S
SAR-Lupe-1 4.4 04:12:50 10° S 04:16:14 41° W 04:17:38 28° NW
FALCON 9 DEB 3.0 04:16:39 33° WNW 04:18:03 79° SW 04:21:31 10° SE
ATLAS 5 CENTAUR R/B 2.2 04:17:17 27° WNW 04:18:06 30° NW 04:22:03 10° NNE
Cosmos 1689 Rocket 2.3 04:16:37 10° S 04:19:20 41° W 04:19:51 37° WNW
USA 305 2.9 04:16:56 25° NW 04:19:25 87° NE 04:23:43 10° SE
Cosmos 2366 rocket 4.3 04:14:57 10° S 04:21:12 71° E 04:27:26 10° NNE
CZ-2C R/B 4.1 04:18:31 10° SE 04:23:26 37° ENE 04:28:15 10° N
MOS 1 Rocket 3.5 04:18:47 10° SSE 04:23:46 87° WSW 04:29:04 10° NNW
Nadezhda 3 Rocket 4.4 04:18:19 10° NNW 04:24:05 40° W 04:29:47 10° SSW
H-2A R/B 3.0 04:21:23 10° NNE 04:25:09 56° E 04:28:57 10° S
Cosmos 1242 Rocket 2.9 04:22:51 10° N 04:26:31 66° E 04:30:09 10° SSE
Cosmos 2218 Rocket 4.1 04:20:35 10° S 04:26:49 81° E 04:33:00 10° N
USA 81 4.0 04:22:54 10° S 04:28:08 72° W 04:33:25 10° N
USA 306 2.9 04:25:27 21° NW 04:28:15 81° SW 04:32:32 10° SE
Cosmos 1633 Rocket 3.0 04:25:27 10° SSW 04:29:50 67° W 04:34:14 10° N
Meteor 1-20 Rocket 4.2 04:26:05 10° S 04:31:48 85° W 04:37:39 10° N
Cosmos 1125 Rocket 3.6 04:26:54 10° SW 04:31:57 51° WNW 04:37:02 10° N
Cosmos 1048 Rocket 4.2 04:28:12 11° NNW 04:33:01 47° WSW 04:37:55 10° S
BREEZE-M DEB (TANK) 3.5 04:34:15 20° WNW 04:36:08 45° N 04:41:32 10° E
Meteor 1-27 Rocket 4.2 04:31:35 10° NNW 04:37:01 40° W 04:42:28 10° SSW
NOSS 2-1 (E) 3.0 04:36:06 10° SSW 04:39:29 76° ESE 04:42:54 10° NE
GENESIS II 4.2 04:36:03 10° SW 04:40:04 78° NW 04:44:06 10° NNE
H-2A R/B 3.1 04:37:03 10° N 04:40:43 40° WNW 04:44:19 10° SW
Cosmos 1269 Rocket 4.4 04:35:28 10° NNW 04:40:44 66° ENE 04:45:58 10° SSE
PSLV R/B 3.9 04:44:44 10° N 04:48:21 44° WNW 04:51:53 10° SW
Cosmos 1707 Rocket 4.4 04:48:52 10° NNW 04:52:35 29° W 04:56:18 10° SSW
COSMOS 2455 4.2 04:49:18 11° W 04:52:53 18° NW 04:56:56 10° N
deb Kosmos-1763 4.0 04:50:04 10° NNW 04:53:41 87° WSW 04:57:17 10° SSE
CZ-2C R/B 2.5 04:51:43 10° WSW 04:54:30 25° S 04:57:13 10° SE
CZ-4B DEB 4.2 04:49:51 10° N 04:55:17 65° WNW 05:00:41 10° SSW
AQUARIUS 4.3 04:52:29 10° NNE 04:57:00 80° ESE 05:01:29 10° S
Cosmos 2242 Rocket 4.0 04:55:01 10° N 04:59:25 66° E 05:03:46 10° SSE
Sich 1 4.5 04:56:46 10° WSW 04:59:43 17° WNW 05:02:42 10° NNW
SL-8 Rocket 4.3 04:56:39 10° SSW 05:02:29 44° WNW 05:08:23 10° N
Meteor 1-19 Rocket 4.1 04:58:03 10° NNW 05:03:29 81° W 05:08:53 10° S
Cosmos 1833 Rocket 3.3 04:59:03 10° NW 05:04:07 36° WSW 05:09:10 10° S
MOS 1-B 4.4 04:58:52 10° N 05:04:37 64° WNW 05:10:19 10° SSW
Cosmos 1939 Rocket 4.3 05:03:17 10° NNE 05:07:16 45° E 05:11:14 10° S
Okean 1 3.5 05:04:46 10° NNW 05:08:45 54° W 05:12:41 10° S
Cosmos 2082 Rocket 2.3 05:04:00 10° NNW 05:09:38 61° WSW 05:15:14 10° S
SL-4 R/B 2.4 05:07:03 10° WNW 05:10:40 41° SW 05:14:03 10° SSE
Cosmos 2297 3.8 05:05:58 10° SSW 05:11:36 89° ESE 05:17:16 10° NNE
USA 290 2.9 05:08:43 10° NW 05:11:43 35° WSW 05:14:40 10° S
Cosmos 1703 Rocket 3.8 05:07:34 10° N 05:11:55 74° E 05:16:13 10° SSE
Cosmos 1602 4.4 05:09:28 10° SW 05:13:03 33° WNW 05:16:39 10° NNW
CZ-4B R/B 3.2 05:09:38 10° N 05:15:03 75° WNW 05:20:33 10° SSW
Meteor 1-14 Rocket 4.3 05:09:48 10° SSW 05:15:28 72° W 05:21:19 10° N
Meteor 1-18 Rocket 4.3 05:11:03 10° NNW 05:16:37 61° W 05:22:04 10° S
